Regional Weather Roundup
Issued by NWS

Home | Current Version | Previous Version | Text Only | Print | Product List | Glossary On
Versions: 1 2 3 4 5 6 7 8 9 10 11 12 13 14 15 16 17 18 19 20 21 22 23 24 25 26 27 28 29 30 31 32 33 34 35 36 37 38 39 40 41 42 43 44 45 46 47 48 49 50
491
ASUS42 KFFC 290803
RWRGA
WEATHER ROUNDUP FOR GEORGIA
NATIONAL WEATHER SERVICE PEACHTREE CITY GA
400 AM EDT FRI JUL 29 2016

NOTE: "FAIR" INDICATES FEW OR NO CLOUDS BELOW 12,000 FEET WITH NO
SIGNIFICANT WEATHER AND/OR OBSTRUCTIONS TO VISIBILITY.

* = USE WITH CAUTION. THE STATIONS MARKED WITH AN ASTERISK MAY NOT
REPORT WEATHER SUCH AS PRECIPITATION, FOG, OR THUNDER AND ARE NOT
QUALITY CONTROLLED BY NWS.

THE REMARK "TC" DENOTES TEMPERATURE READING IN DEGREES CELSIUS.

GAZ001>058-290900-
NORTH GEORGIA

CITY           SKY/WX    TMP DP  RH WIND       PRES   REMARKS
ATLANTA        MOCLDY    75  72  90 W6        30.03S
ATHENS         CLEAR     75  72  90 W5        30.00R
CHAMBLEE       CLOUDY    75  70  84 W6        30.03R
PEACHTREE CITY PTCLDY    73  69  87 CALM      30.04S
ROME           MOCLDY    74  72  93 CALM      30.00S
WEST ATLANTA   PTCLDY    75  70  84 SW3       30.02R
GAINESVILLE    MOCLDY    73  70  90 W7        30.03S
CARTERSVILLE   CLOUDY    73  72  96 CALM      30.02S


CITY           SKY/WX    TMP DP  RH WIND       PRES   REMARKS
DALTON*        CLOUDY    72  72 100 SE3       30.01S
MARIETTA       CLOUDY    74  71  92 W6        30.03R
CANTON*        CLOUDY    73  68  83 CALM      30.04R
BLAIRSVILLE*     N/A    N/A N/A N/A MISG      30.05R
$$

GAZ059>098-102>109-290900-
CENTRAL GEORGIA

CITY           SKY/WX    TMP DP  RH WIND       PRES   REMARKS
AUGUSTA-BUSH   CLEAR     79  69  71 W5        29.95S
AUGUSTA-DANIEL CLEAR     82  69  64 CALM      29.97S
COLUMBUS       PTCLDY    78  68  71 W7        30.02S
MACON          PTCLDY    78  68  71 W8        30.00S
ROBINS AFB     PTCLDY    81  70  69 W8        29.99S


CITY           SKY/WX    TMP DP  RH WIND       PRES   REMARKS
LAGRANGE*      PTCLDY    73  73 100 CALM      30.04S
MILLEDGEVILLE* PTCLDY    81  72  74 W3        29.99R
$$

GAZ099>101-110>166-290900-
SOUTH GEORGIA

CITY           SKY/WX    TMP DP  RH WIND       PRES   REMARKS
SAVANNAH       CLEAR     80  71  74 W8        29.98S
VALDOSTA       CLEAR     77  75  93 CALM      30.01F
ALMA           CLEAR     78  73  84 W5        30.00S
ST SIMONS      CLEAR     82  74  76 W8        29.99F
ALBANY         CLEAR     77  73  87 W3        30.03F
HUNTER AFB     CLEAR     80  75  84 SW7       29.95S
MOODY AFB      CLEAR     78  73  83 W7        30.01F
BRUNSWICK      CLEAR     81  77  89 W10       30.00S


CITY           SKY/WX    TMP DP  RH WIND       PRES   REMARKS
BAINBRIDGE*    CLEAR     77  73  88 CALM      30.03R
MOULTRIE*      CLEAR     77  73  88 CALM      30.03F
VIDALIA*       PTCLDY    79  70  73 W5        30.00R
WAYCROSS*      CLEAR     80  77  90 W5        30.00F
DOUGLAS*       CLEAR     77  72  83 W6        30.02S
$$




USA.gov is the U.S. government's official web portal to all federal, state and local government web resources and services.